GEFSNGP_500_meanwind_126.txt.gz
Wind_Speed
29 29 29 28 28 27 27 27 26 25 25 23 22 21 21 20 18 17 14 13 12 12 11 9 9 9 9 9 8 9 9 10 11 11 12 14 15 16 16 17 18 19 20 20
31 31 31 30 30 30 30 30 29 29 29 26 25 24 22 21 20 18 17 15 15 14 13 12 11 11 11 11 10 10 10 11 12 11 12 13 15 16 17 17 18 20 21 21
35 34 33 33 32 33 33 33 31 30 30 30 29 27 25 23 23 21 20 19 16 16 16 15 13 14 13 12 12 12 12 12 12 12 12 13 14 16 17 18 19 19 19 20
36 36 37 36 35 35 35 34 33 32 31 30 29 28 27 26 26 24 23 20 19 18 18 17 16 16 15 14 14 14 13 14 14 14 14 14 15 17 18 19 19 19 20 20
35 35 35 36 36 35 36 36 35 33 31 30 30 29 29 28 28 27 25 24 22 21 20 19 19 18 17 17 16 16 16 16 16 16 16 16 17 18 18 19 20 20 21 22
35 34 34 33 34 36 36 36 35 34 32 31 31 31 30 29 29 27 27 26 24 22 22 20 19 19 19 19 19 18 18 18 17 17 17 17 18 19 19 20 21 22 23 24
35 34 33 31 31 33 35 35 33 33 33 32 33 32 31 30 30 29 29 27 26 26 24 23 22 22 22 21 20 20 19 19 18 18 19 20 20 20 21 21 22 23 24 24
33 33 32 30 30 31 33 33 33 32 32 31 31 30 30 29 29 30 30 29 29 27 25 24 23 23 22 22 22 21 19 18 18 20 19 19 21 22 22 23 23 24 25 26
32 31 30 29 29 31 32 32 32 32 32 30 29 28 29 29 30 29 29 29 28 26 25 25 24 23 23 22 22 21 21 21 22 21 22 23 22 22 22 24 24 25 27 28
31 30 29 28 28 29 30 30 31 31 29 29 28 28 28 28 28 28 27 27 26 25 24 24 24 24 24 24 23 22 23 23 23 23 23 23 25 25 25 25 26 28 29 30
29 29 27 27 27 27 27 28 27 27 27 27 28 28 28 27 26 26 25 24 23 23 22 21 21 22 22 22 22 22 22 22 23 24 24 25 26 26 26 27 28 28 30 31
26 25 26 25 26 26 25 25 25 25 25 25 25 25 24 24 24 23 23 22 23 23 22 21 21 21 21 22 23 23 23 23 23 24 25 26 27 27 28 29 30 29 30 31
25 24 24 24 24 24 24 23 23 23 23 23 23 22 21 22 21 21 20 21 20 21 22 22 21 22 22 22 22 22 23 23 24 25 25 26 27 27 27 28 29 30 30 30
24 24 23 23 23 22 22 22 21 20 20 20 21 21 20 19 19 19 19 19 19 20 21 21 22 22 23 23 22 23 23 23 24 24 24 24 25 25 26 27 28 28 29 30
21 22 21 21 21 21 20 19 19 18 18 18 18 18 17 17 16 17 17 17 18 18 19 19 20 21 21 22 22 22 23 23 23 22 22 22 23 23 24 25 27 28 30 31
18 18 18 19 19 19 19 18 17 16 15 14 14 14 14 14 14 14 15 15 15 16 17 18 18 18 18 18 18 19 20 20 20 20 20 21 22 23 25 26 28 30 31 32
16 16 16 17 17 16 15 15 14 14 13 13 13 12 13 13 13 13 12 13 14 14 14 14 14 15 15 16 17 18 18 19 19 19 21 22 24 25 26 28 29 31 33 35
14 14 13 13 13 13 13 13 14 13 13 12 12 12 12 12 12 12 13 12 13 13 14 14 14 14 15 16 16 17 17 18 19 19 21 22 24 26 28 30 32 34 36 38
12 11 11 11 11 11 11 11 12 12 11 11 11 11 11 11 11 12 12 13 12 12 12 12 12 12 13 14 14 15 17 18 19 21 22 24 26 28 30 32 34 36 37 38
11 11 11 11 11 11 11 10 10 10 10 10 10 10 10 10 11 10 10 11 10 10 10 10 11 12 13 14 15 17 18 20 22 24 25 27 29 31 32 33 34 36 37 38
10 10 11 11 11 10 10 10 10 10 10 10 10 9 8 9 9 8 8 8 8 8 9 10 12 13 14 15 17 19 20 22 24 26 27 29 30 31 33 34 35 36 37 37
11 10 10 10 10 10 9 10 10 10 10 9 9 8 7 7 7 7 7 8 8 9 11 12 14 15 17 18 20 21 23 24 26 27 29 30 31 32 34 35 35 35 36 36
11 10 10 10 10 9 9 9 8 8 8 8 7 6 6 7 7 7 8 9 10 12 13 15 17 19 20 22 23 24 25 26 28 29 30 31 32 33 34 34 34 34 34 34
11 10 10 10 9 9 9 9 8 7 7 7 7 7 7 8 9 10 11 12 14 16 17 19 20 22 23 24 25 26 27 28 29 30 31 32 32 32 32 32 32 32 32 31
11 10 9 9 8 8 8 7 7 7 6 7 8 8 9 11 12 13 14 16 17 19 20 21 22 23 24 25 26 27 28 29 29 30 30 30 30 30 30 29 29 29 29 28
11 10 8 7 7 7 7 7 8 8 8 9 10 11 12 14 15 16 18 19 20 21 22 23 24 25 26 26 26 27 27 28 28 28 28 28 28 28 28 28 27 27 27 27
10 9 8 7 7 7 8 8 9 10 11 11 12 13 15 16 18 19 20 21 21 22 22 23 24 25 25 26 26 26 26 26 27 27 26 26 26 26 26 25 25 25 26 26

GEFSNGP_500_meanwind_132.txt.gz
Wind_Speed
26 25 26 26 26 25 24 22 22 21 20 18 17 17 17 16 15 15 15 14 13 12 12 11 11 11 11 10 10 10 10 10 11 11 12 13 14 15 16 17 18 19 20 21
26 26 26 27 27 27 26 25 24 23 22 20 19 18 18 17 16 16 14 14 14 14 14 13 12 12 12 12 11 12 12 12 12 12 13 14 15 16 16 17 18 20 21 22
28 28 28 29 28 28 28 27 26 25 24 22 21 20 19 19 19 18 17 17 16 15 14 14 14 13 13 13 13 14 14 14 15 15 15 16 17 17 17 18 19 20 21 21
32 31 32 31 30 29 30 30 29 27 26 24 23 22 22 21 21 21 20 19 18 18 16 16 15 14 14 14 15 15 16 16 16 16 17 17 17 17 17 18 19 20 21 22
35 35 35 33 32 31 31 31 31 29 28 26 25 25 24 23 23 23 22 21 20 19 18 17 16 16 16 16 16 17 16 17 18 18 18 18 18 19 18 19 20 20 23 24
38 37 37 34 33 33 33 32 30 29 28 27 26 25 24 24 24 24 24 23 22 21 20 19 18 18 18 19 19 19 19 18 18 18 18 18 19 19 19 20 21 22 23 24
37 38 37 35 34 34 33 32 29 29 28 28 27 26 26 25 25 25 25 24 23 23 22 21 21 21 21 20 20 21 21 20 20 20 19 20 20 20 20 21 22 22 24 24
36 37 37 35 34 34 33 32 30 29 28 28 27 27 26 26 25 24 24 24 24 24 23 23 23 23 23 23 22 21 21 21 20 21 22 22 22 22 21 22 23 24 24 25
36 35 34 34 33 32 31 31 30 29 28 28 26 26 26 25 24 24 24 24 24 23 23 23 23 22 23 23 22 22 22 21 21 22 22 23 24 24 23 23 25 25 25 25
34 33 33 32 32 31 30 29 28 28 27 27 26 26 25 24 24 24 24 24 24 23 23 23 23 23 23 23 23 22 22 21 22 23 23 24 23 22 23 24 24 24 25 26
32 31 31 31 30 29 29 28 26 26 26 25 25 25 25 24 23 24 24 24 24 24 23 23 23 22 21 21 21 22 22 22 23 23 24 24 23 22 21 22 22 23 25 26
31 30 28 28 27 27 27 26 25 25 25 24 24 24 24 24 23 22 23 23 23 23 23 23 22 21 21 20 21 21 21 22 22 23 23 23 23 24 24 24 24 25 26 26
29 29 28 27 26 26 26 25 25 23 23 23 23 22 22 22 22 21 20 20 20 20 20 21 21 20 20 20 20 21 21 22 22 23 23 23 22 22 23 24 24 25 27 28
27 27 27 26 25 25 25 24 24 23 23 23 23 22 22 21 21 21 20 19 19 19 19 19 19 19 20 20 20 21 20 20 21 22 22 22 22 23 23 24 25 26 27 29
25 25 24 24 24 24 24 23 23 22 22 22 22 21 20 20 20 19 19 19 18 18 18 17 17 17 17 18 19 19 19 20 21 21 22 23 23 24 24 25 26 27 28 29
23 22 21 22 22 21 21 20 20 19 19 20 19 19 18 18 17 17 16 16 16 16 16 16 16 16 17 18 18 18 18 19 20 21 22 22 23 24 24 25 26 27 28 29
22 20 20 20 20 20 19 18 17 17 17 17 17 17 16 16 15 14 14 14 14 14 14 14 14 14 15 16 17 17 18 18 19 20 21 22 23 24 25 26 27 28 29 31
20 19 18 18 17 17 17 17 16 16 15 14 14 14 14 14 14 13 12 12 13 13 13 14 14 14 14 15 16 16 17 18 19 20 21 22 24 25 26 27 28 29 30 31
18 17 17 16 16 16 15 15 15 14 14 13 13 13 13 13 13 13 12 12 12 13 13 14 15 15 16 16 17 17 17 18 19 21 22 23 24 25 27 28 29 31 32 34
16 16 15 15 14 15 15 14 14 13 13 13 12 12 12 12 12 13 13 13 13 13 13 14 15 16 16 16 16 17 18 19 20 21 23 24 25 27 28 30 31 32 34 35
15 15 14 13 13 13 13 13 13 12 12 11 11 11 11 11 11 11 11 12 13 13 14 14 14 14 14 15 17 18 19 21 22 24 25 26 27 29 30 31 32 34 35 35
14 14 13 13 13 12 12 12 12 12 11 11 10 10 10 10 10 10 10 10 11 11 12 12 13 14 15 16 18 19 21 23 24 25 27 28 29 30 31 32 33 34 34 34
14 14 14 14 13 12 11 11 11 11 10 10 10 9 9 9 9 8 8 9 9 11 12 13 14 16 17 19 20 22 23 24 25 27 28 29 30 31 32 33 33 33 33 33
14 14 13 13 13 11 10 9 9 9 9 9 8 8 8 8 8 8 9 10 12 13 15 16 17 19 20 22 23 25 26 26 27 29 30 30 31 31 32 33 33 32 32 32
13 13 12 12 11 10 9 9 8 8 8 8 7 7 8 8 10 11 12 13 15 16 17 19 20 22 23 25 26 27 27 28 29 29 29 30 31 31 32 32 31 31 30 29
12 12 11 11 11 10 9 8 7 7 7 7 7 8 9 11 12 13 15 16 17 19 20 22 23 24 26 26 27 27 27 28 28 29 29 30 30 30 30 29 28 28 28 27
11 11 11 10 10 9 8 7 6 7 7 8 9 10 12 13 14 16 17 18 20 21 23 24 25 26 26 26 27 27 28 28 28 29 29 29 29 28 27 26 26 26 26 26

GEFSNGP_500_meanwind_138.txt.gz
Wind_Speed
26 25 23 22 22 22 22 20 18 17 17 17 17 16 15 15 15 15 15 15 14 13 14 14 13 13 13 13 13 12 12 12 12 12 13 14 14 15 16 16 17 19 20 21
27 26 25 25 24 23 22 22 20 19 19 19 18 17 16 15 16 16 16 16 15 15 15 15 14 14 14 14 14 14 14 14 14 14 14 15 15 17 17 18 19 19 20 21
27 26 26 26 26 25 24 22 21 20 20 19 18 18 17 17 16 17 17 18 17 16 16 16 16 16 16 16 15 15 15 15 15 16 17 17 17 18 18 19 19 21 20 21
27 27 27 26 26 25 24 23 22 22 21 20 19 19 19 19 19 19 18 19 19 18 17 17 17 17 17 16 16 16 16 17 18 18 18 19 19 19 20 21 21 21 21 21
29 27 28 30 27 26 26 26 25 24 23 22 21 21 21 20 21 21 20 20 20 20 20 20 19 19 18 18 18 18 19 19 19 20 20 20 20 20 21 22 23 22 22 22
32 28 27 29 28 26 27 28 26 25 24 23 22 23 22 21 21 22 22 22 22 22 22 22 22 21 21 20 20 20 20 21 21 22 22 22 22 22 22 22 23 23 23 23
33 31 30 31 28 27 29 28 26 25 25 24 24 24 23 22 22 23 23 23 24 24 24 24 24 24 23 23 22 22 22 22 23 23 23 23 23 23 23 23 23 23 24 24
33 32 33 32 30 30 30 29 28 27 26 26 25 24 24 24 24 24 24 24 25 25 25 25 26 26 25 25 24 23 23 23 23 24 25 24 24 24 24 24 24 23 24 25
34 34 34 32 31 30 29 30 29 28 28 27 26 26 25 25 25 25 25 25 25 26 26 26 26 26 26 25 25 24 24 24 24 24 24 25 25 25 25 25 24 25 25 25
34 33 33 32 30 29 29 29 28 28 28 27 26 25 25 24 24 25 25 25 25 26 26 26 26 25 25 24 24 24 25 25 26 26 25 25 25 25 26 26 26 26 26 26
33 32 32 31 31 30 30 29 29 28 27 26 26 25 25 25 25 25 25 25 25 26 26 26 26 25 24 24 24 25 25 25 25 26 27 28 27 26 26 26 27 27 27 27
32 31 31 31 30 30 30 30 29 28 27 27 27 26 25 25 25 25 26 25 24 25 25 25 25 26 25 25 25 25 25 24 24 24 24 25 25 26 27 27 28 28 28 28
30 29 29 28 28 29 29 29 28 28 28 27 26 25 24 24 24 25 25 25 25 25 25 25 25 25 25 25 24 24 24 24 24 23 23 23 24 25 25 26 26 26 26 26
29 29 28 28 27 27 27 26 26 26 27 26 25 24 24 23 23 23 23 23 24 23 23 23 23 23 23 22 23 23 23 23 22 21 21 21 22 23 23 24 24 25 25 26
27 28 28 28 28 27 26 25 25 25 25 25 25 24 23 22 22 23 23 22 22 22 22 21 21 21 21 21 21 22 22 21 21 21 21 21 22 22 22 24 25 26 26 27
25 25 25 26 26 26 25 25 25 25 25 25 24 23 23 22 22 22 22 21 22 22 21 20 20 20 20 20 20 20 20 20 20 20 20 21 21 21 22 23 25 25 26 27
24 24 24 23 23 24 24 24 23 22 22 22 22 22 21 20 20 20 19 19 19 19 18 18 17 17 17 17 17 17 17 17 18 19 19 20 21 21 22 23 24 25 26 27
23 24 23 22 23 22 23 23 22 21 20 20 20 20 19 19 18 18 17 17 16 16 15 15 15 15 16 16 16 16 17 18 18 19 20 21 22 23 24 24 25 25 26 27
22 22 21 21 21 21 22 22 20 19 19 19 19 18 17 16 16 16 15 15 14 14 14 14 14 14 14 15 15 16 17 19 19 20 20 21 22 23 23 24 25 26 27 28
21 21 20 20 20 20 20 19 18 18 17 17 16 16 15 14 14 14 14 14 14 13 13 13 14 14 14 14 15 16 17 18 19 20 20 21 21 22 23 24 26 27 28 29
19 19 19 19 19 18 18 18 17 17 16 15 15 14 14 13 12 12 12 13 12 12 12 12 13 13 14 15 15 16 16 17 17 18 20 21 23 24 25 26 27 27 28 29
18 18 19 18 17 17 17 17 16 15 15 14 13 13 12 12 11 11 11 11 11 10 11 12 13 13 14 14 15 16 17 18 19 21 22 23 24 25 25 26 27 28 28 29
18 18 18 18 17 16 16 15 14 14 14 13 13 12 12 11 11 10 9 9 10 10 10 11 11 12 14 15 16 18 19 20 21 22 23 23 24 25 26 27 27 28 28 29
19 19 18 17 16 15 14 14 13 12 12 12 12 11 10 10 10 9 8 8 8 9 10 11 12 14 15 17 18 19 20 21 22 23 24 25 25 26 26 27 27 27 27 27
18 17 17 16 15 14 14 13 12 11 11 11 10 9 9 8 7 7 8 8 9 10 12 13 14 16 18 19 20 21 22 22 23 24 24 24 25 25 26 26 26 26 25 25
17 17 16 16 15 15 13 12 11 11 10 10 9 8 7 7 7 7 9 10 11 13 14 15 17 18 19 20 21 22 23 23 23 23 23 24 24 25 25 25 25 24 24 23
17 16 16 16 15 13 12 11 10 9 9 8 8 7 7 7 8 9 11 12 13 14 16 17 19 20 21 22 23 23 23 23 22 22 23 23 24 24 23 23 22 22 22 21

GEFSNGP_500_meanwind_144.txt.gz
Wind_Speed
30 24 20 20 20 21 23 24 22 21 23 24 24 24 21 21 19 19 18 17 17 17 16 16 16 15 15 15 14 14 13 13 12 12 12 13 13 14 15 16 17 17 17 18
32 28 23 20 20 20 22 23 24 24 25 26 24 25 23 22 22 21 19 19 19 18 17 17 17 17 16 16 15 15 15 15 14 14 14 15 15 16 17 18 19 19 20 20
31 28 26 25 22 21 20 21 23 25 26 27 26 25 24 23 24 23 21 20 20 19 19 19 19 18 18 18 17 16 16 16 16 16 16 16 16 17 17 17 19 20 20 21
30 27 28 26 24 23 23 24 25 27 30 30 30 27 26 25 24 24 23 22 21 21 21 21 20 20 20 19 19 19 18 18 18 18 18 17 18 18 18 19 20 21 22 22
31 28 27 26 26 25 26 27 28 29 32 32 32 31 28 26 25 24 23 23 23 22 22 23 23 22 22 22 21 20 20 20 20 20 19 19 19 19 20 21 21 21 22 23
33 29 28 28 28 28 29 31 31 32 33 34 33 31 29 26 25 24 24 23 24 23 24 24 24 24 23 23 23 22 22 21 21 21 21 21 21 21 21 21 21 22 23 23
34 31 30 30 30 30 31 33 33 32 33 34 33 31 28 25 24 25 24 24 24 24 24 24 25 25 25 24 24 24 24 23 22 22 22 22 23 23 22 22 23 24 24 25
36 35 34 34 33 32 34 32 32 32 32 31 30 29 28 26 25 25 25 25 25 25 25 25 26 26 26 25 25 24 25 24 24 23 23 24 24 24 24 24 25 25 26 27
37 40 40 39 37 35 34 32 32 32 32 30 29 28 28 27 26 26 26 26 26 26 26 26 26 26 26 26 25 25 25 25 25 25 25 25 25 25 25 26 27 27 28 28
38 41 41 40 38 37 35 33 33 31 32 33 30 29 29 29 28 27 27 27 27 27 27 27 26 26 26 26 26 26 26 26 26 26 26 25 25 25 26 28 28 28 28 28
40 40 41 40 38 37 35 33 33 33 33 32 31 31 30 29 29 28 28 28 28 28 28 28 27 27 27 26 27 26 27 27 26 26 25 25 26 26 27 27 27 27 28 27
42 42 41 40 37 35 35 33 33 34 34 33 33 31 30 29 29 29 28 28 28 28 27 27 27 27 27 27 27 27 27 27 26 25 25 26 26 26 27 27 27 26 27 27
37 40 39 37 34 34 34 34 34 33 32 32 32 31 30 30 29 29 28 28 28 28 27 27 27 26 26 26 26 26 26 26 26 25 25 25 25 25 26 26 26 26 26 26
34 36 36 36 34 33 33 33 34 33 33 32 31 30 29 29 28 28 28 28 28 27 26 26 26 26 26 25 25 25 25 25 25 25 25 25 25 24 24 24 24 24 24 25
34 34 34 33 32 32 32 32 32 32 31 31 30 29 29 29 29 28 27 26 25 25 25 25 24 24 25 24 25 24 23 23 23 23 23 24 24 24 23 23 23 23 24 25
30 30 31 31 30 30 30 30 30 30 29 29 28 28 28 28 27 26 25 25 25 24 24 23 23 22 22 23 22 22 22 22 23 23 23 24 23 23 23 23 23 24 25 25
28 29 29 29 28 28 28 28 28 28 27 26 26 26 25 25 25 24 24 24 23 23 22 22 21 21 21 21 21 21 21 21 21 21 21 21 21 22 22 22 23 24 25 25
27 27 27 26 26 26 26 26 26 25 25 25 24 24 24 23 23 23 22 22 22 21 20 20 20 19 19 19 19 19 19 19 19 20 20 21 21 22 23 23 24 25 26 26
24 25 26 26 25 25 25 25 25 25 24 24 24 23 23 22 21 20 20 20 20 19 19 18 17 16 16 16 17 17 18 18 18 19 20 21 21 22 24 24 25 25 26 26
24 24 24 24 23 22 22 23 22 22 21 22 21 20 20 19 18 18 18 18 18 17 17 16 15 15 15 15 15 16 16 17 17 18 20 20 21 22 23 23 24 25 26 27
24 23 22 22 22 22 21 21 20 20 20 19 19 19 18 17 17 16 16 16 15 15 15 15 15 14 14 14 15 15 16 16 17 18 19 20 21 22 23 25 25 26 27 28
22 22 20 20 20 20 19 19 19 18 18 18 17 17 16 16 16 15 15 14 14 13 13 12 12 13 13 14 14 15 16 16 17 18 19 21 23 24 25 26 27 28 28 28
20 20 19 18 18 18 18 18 18 17 16 16 15 15 15 14 14 13 12 11 11 10 10 10 11 12 12 13 13 14 16 17 18 20 21 23 24 25 26 27 27 27 27 28
18 18 18 18 17 17 17 17 16 15 15 14 14 13 13 12 11 10 10 9 9 9 9 10 11 11 12 13 15 16 18 19 21 22 23 24 25 25 25 25 26 26 26 26
16 17 17 16 16 15 15 15 14 13 12 12 11 11 10 10 9 8 8 8 8 9 9 10 11 12 13 15 16 17 19 20 21 22 23 23 24 24 24 24 25 25 25 25
15 16 16 15 14 13 13 13 12 11 11 11 9 8 8 8 7 7 7 7 8 9 10 11 12 13 15 16 17 19 20 21 22 23 23 24 24 24 24 24 24 24 24 24
14 15 15 14 13 12 12 11 11 10 9 8 8 7 7 6 6 7 7 8 10 11 12 13 14 15 17 18 19 20 21 22 22 23 23 23 23 24 24 24 23 23 23 24

GEFSNGP_500_meanwind_150.txt.gz
Wind_Speed
32 32 30 28 25 23 23 23 24 24 25 24 23 23 21 20 19 18 18 17 15 13 13 13 12 13 13 12 12 12 11 11 11 11 11 11 11 11 11 11 12 13 14 16
32 34 35 32 28 26 25 23 24 24 24 24 24 23 24 23 21 20 20 19 17 16 14 14 14 14 14 13 13 13 13 13 13 12 13 12 12 12 12 13 13 14 14 16
33 35 36 37 32 29 27 26 25 25 23 25 25 25 24 23 22 22 20 20 19 18 16 16 16 15 15 15 15 15 15 15 14 15 14 14 13 14 14 15 15 15 16 18
34 36 40 36 34 32 30 27 26 26 25 25 26 26 25 25 24 22 22 22 21 19 19 18 18 17 17 17 17 17 17 17 17 17 16 16 15 16 15 16 16 16 16 16
36 38 39 38 36 35 33 31 29 29 27 27 27 27 27 26 25 24 24 23 22 21 20 20 19 19 18 18 19 19 19 19 19 18 18 18 18 18 18 17 17 17 17 18
37 38 40 38 36 37 37 35 33 32 30 29 29 29 28 28 27 26 26 26 23 21 20 20 20 20 20 20 20 20 20 19 19 19 19 19 19 19 19 19 19 19 19 19
39 38 39 38 37 38 40 38 34 33 33 32 31 29 28 28 28 28 26 25 25 23 22 21 21 21 21 21 21 21 21 21 21 20 20 20 20 20 20 21 21 21 22 22
40 39 39 37 38 39 40 37 35 34 34 33 32 29 29 29 28 27 27 27 25 24 23 23 22 22 21 21 22 22 22 22 21 21 21 20 21 21 21 22 22 23 23 23
41 40 37 37 38 39 39 38 36 34 33 33 33 29 29 27 26 27 26 26 26 25 23 23 23 23 23 23 23 23 23 22 22 22 22 22 22 22 22 22 22 23 23 24
40 39 38 38 38 38 39 39 37 36 34 32 32 31 31 28 27 27 26 26 24 24 23 22 23 23 24 23 23 23 23 23 23 23 22 23 23 22 22 22 23 23 24 25
41 39 38 37 37 38 38 38 38 36 35 34 33 32 30 29 28 28 27 25 25 25 23 23 24 24 25 25 24 24 24 24 24 24 23 23 23 23 23 24 24 24 24 25
38 37 36 37 37 37 37 37 37 36 36 34 34 34 31 29 29 28 26 25 25 26 26 25 24 25 25 26 25 24 24 24 24 24 23 23 23 24 24 24 24 24 24 24
37 37 36 35 36 36 36 36 35 34 34 34 32 31 31 30 28 26 25 24 25 25 25 25 25 25 25 24 24 24 23 23 23 23 23 23 23 23 23 23 23 23 24 24
36 37 34 33 34 34 33 33 31 30 30 29 30 29 29 28 26 25 25 24 24 24 24 24 24 24 24 23 23 23 23 22 22 22 21 21 21 22 22 22 22 23 24 24
34 35 35 33 31 31 31 32 31 30 29 28 27 27 27 26 25 25 24 24 24 24 24 23 23 23 22 22 22 22 22 22 21 20 20 21 21 21 22 22 23 23 23 24
33 32 33 32 29 28 29 29 28 27 26 26 25 25 25 25 25 24 24 24 23 23 23 23 23 22 22 22 21 21 21 20 19 19 20 20 20 21 21 21 21 22 22 23
31 31 31 32 30 29 29 28 27 25 24 24 24 24 23 23 23 22 22 22 22 22 22 22 22 22 21 20 20 19 19 19 19 19 19 19 19 19 20 20 21 21 22 23
28 26 26 27 28 27 26 25 24 23 22 22 23 23 23 22 22 21 21 21 21 20 21 20 20 20 19 19 18 18 18 17 17 17 18 19 19 20 20 20 20 21 22 24
26 26 24 24 24 23 22 22 22 22 22 22 22 21 21 21 20 20 19 19 18 18 18 18 18 18 18 17 17 17 16 16 16 17 18 18 19 19 19 20 21 22 23 24
22 22 22 22 22 21 21 21 22 22 21 21 20 20 19 18 18 18 17 17 16 17 17 17 17 17 17 17 16 15 15 15 16 17 17 18 18 19 19 20 21 22 24 25
19 20 20 20 20 20 20 21 22 21 20 19 19 18 17 17 17 17 16 15 16 16 15 14 14 14 15 15 14 14 14 15 15 16 17 17 17 18 19 21 22 24 25 26
18 18 18 18 17 18 18 19 19 18 17 17 17 16 16 16 16 16 16 15 15 14 14 14 13 13 14 14 13 13 13 14 15 15 16 16 18 19 21 23 24 24 25 25
18 17 17 16 15 16 16 16 16 16 16 16 15 14 15 15 14 14 13 13 13 12 12 13 13 13 13 13 13 13 13 14 15 16 17 18 20 21 22 23 24 25 25 25
15 15 15 15 15 15 15 16 16 16 15 14 14 13 13 12 11 11 11 11 10 11 11 12 12 12 12 12 13 13 14 15 16 18 19 20 21 22 23 23 24 24 24 24
14 14 14 14 14 15 15 15 15 14 14 13 12 12 11 11 10 10 10 10 10 10 10 11 11 11 11 12 13 15 16 17 18 20 20 21 22 22 23 23 23 23 23 23
13 14 14 13 13 13 14 13 13 12 12 12 11 10 10 9 9 8 8 8 9 9 9 9 10 12 13 14 15 16 17 19 20 20 20 21 21 22 22 22 22 22 22 23
13 13 14 13 13 13 12 12 12 11 11 10 10 9 9 8 8 8 8 8 8 9 10 11 13 13 14 15 17 18 19 20 20 21 21 21 22 22 22 22 23 23 23 23

GEFSNGP_500_meanwind_156.txt.gz
Wind_Speed
32 32 32 32 31 30 28 26 24 21 19 17 17 17 17 16 15 14 13 13 13 13 14 13 12 12 12 11 11 11 11 11 11 11 12 12 12 12 12 13 14 14 15 16
31 31 33 33 33 32 30 28 26 23 20 18 18 17 17 16 16 16 15 14 14 14 14 14 12 12 13 13 13 13 12 12 13 13 14 14 14 14 15 15 15 16 17 17
29 29 32 34 33 33 31 29 27 24 21 20 18 18 17 17 17 17 16 16 16 16 16 15 14 13 14 14 14 14 14 15 15 15 16 16 15 16 17 17 17 17 18 18
30 29 32 31 31 32 32 30 28 26 24 22 20 19 18 18 17 17 18 17 17 17 17 16 16 15 15 15 15 16 16 16 16 16 17 18 17 18 18 19 19 19 19 19
32 32 31 31 31 31 31 30 29 27 26 24 22 21 20 19 18 19 18 18 18 18 18 17 17 17 17 17 17 17 17 17 17 18 18 18 19 19 20 20 20 20 21 21
35 34 33 31 31 31 31 31 29 28 27 26 24 22 20 20 20 20 20 20 20 20 19 19 19 19 19 20 19 19 19 19 19 19 19 19 20 20 20 21 21 21 22 22
39 38 36 33 32 32 32 31 30 29 28 27 25 24 22 22 23 23 22 22 23 22 21 21 21 21 21 21 20 20 19 19 20 20 20 20 21 22 22 22 22 23 23 23
42 40 39 35 33 33 33 32 32 30 29 28 27 26 25 24 24 24 24 24 24 23 23 23 22 22 20 20 20 20 20 20 20 21 21 22 23 23 23 24 24 24 24 24
44 42 39 36 35 34 33 33 32 32 31 30 29 28 27 27 27 26 25 25 26 25 25 23 23 21 20 20 21 21 22 21 21 22 23 24 24 24 25 25 25 25 25 25
44 43 40 37 35 34 32 32 32 32 32 31 30 30 30 29 28 28 27 26 25 25 25 24 23 22 21 21 21 21 22 22 23 24 24 24 25 25 26 26 26 26 25 26
44 43 40 38 36 34 33 32 32 32 32 31 30 30 29 29 29 29 27 25 25 26 25 25 25 24 22 21 21 21 22 22 23 23 24 24 25 25 25 26 26 26 26 26
42 42 40 38 37 36 35 34 33 32 31 30 30 30 29 28 28 27 27 26 26 25 25 24 24 23 22 21 21 22 22 23 23 24 24 25 25 25 25 26 26 26 26 26
41 40 39 38 37 36 35 34 33 32 31 30 29 29 28 28 27 25 25 24 24 23 23 23 23 22 21 21 21 22 23 23 23 23 24 24 24 25 25 25 25 25 25 26
39 38 38 38 37 36 36 35 33 31 30 30 30 29 28 27 26 25 24 24 24 23 23 23 22 22 21 21 22 22 22 23 23 23 23 24 24 24 24 23 23 24 24 25
37 37 36 37 36 34 34 34 33 32 31 30 29 29 28 27 27 26 25 24 24 24 23 23 23 23 23 23 23 23 23 23 22 23 23 23 23 23 23 22 23 24 24 25
36 34 34 35 34 33 32 32 32 31 30 29 29 29 28 28 27 26 25 24 24 24 23 23 23 24 24 24 23 23 22 22 22 22 22 22 22 22 22 22 23 24 24 24
33 33 32 33 32 31 30 30 30 29 28 28 27 27 26 26 25 24 24 24 24 23 22 22 23 23 23 23 22 22 22 22 21 21 21 21 22 22 22 22 23 23 23 24
30 30 29 28 28 29 28 28 28 28 27 27 26 26 26 25 24 23 23 23 22 21 20 20 21 22 22 21 21 21 21 20 20 20 21 21 21 22 22 22 23 23 24 24
26 26 26 25 25 25 26 27 26 25 24 25 25 25 25 24 23 22 22 22 21 21 20 21 21 21 20 19 19 18 19 19 19 19 20 20 21 21 21 22 22 23 23 24
24 24 24 23 22 23 24 24 24 24 23 22 23 23 23 23 22 22 22 21 21 20 20 20 20 19 18 18 17 17 18 19 19 19 19 20 20 20 21 21 21 21 22 23
22 21 21 21 22 22 22 22 22 22 21 21 20 21 21 21 21 21 21 20 19 19 19 18 18 18 17 17 17 17 17 18 19 19 20 20 20 20 21 21 22 22 23 24
20 20 19 20 20 21 20 20 20 20 20 19 18 18 19 19 19 19 19 18 17 17 16 16 17 17 17 16 16 17 17 17 18 18 19 19 19 20 21 22 22 23 24 25
19 19 19 19 20 20 19 19 19 18 19 19 18 17 17 17 17 17 17 16 16 15 15 15 15 15 15 15 16 16 17 17 17 17 18 19 19 20 21 22 23 24 24 25
17 18 19 19 19 18 18 18 18 17 17 18 18 17 17 16 16 15 15 15 15 15 14 14 13 13 14 14 15 15 16 16 17 17 18 19 20 21 22 23 24 24 24 24
17 17 17 17 17 17 17 17 17 16 15 15 16 16 16 15 15 14 14 14 13 14 13 13 13 13 13 14 14 15 16 17 18 18 19 20 21 22 23 23 23 24 24 24
16 16 16 16 16 16 16 15 15 14 13 13 14 14 13 13 13 13 13 12 12 12 12 12 12 12 12 14 15 16 17 18 19 20 21 22 22 22 23 23 24 25 25 25
15 15 15 15 15 15 15 14 14 14 13 12 12 11 11 11 11 11 11 11 11 11 11 12 12 12 13 15 16 17 18 19 20 21 21 22 22 23 24 25 25 26 26 26

GEFSNGP_500_meanwind_162.txt.gz
Wind_Speed
31 31 30 29 28 27 26 24 22 20 18 18 17 16 16 15 15 15 14 15 15 15 14 13 13 13 13 13 13 13 14 13 13 13 13 13 13 13 13 13 14 14 15 15
30 30 29 29 29 28 27 25 23 21 20 18 17 16 16 15 15 15 15 16 16 15 14 15 15 15 15 14 14 14 15 15 15 15 15 15 15 15 15 15 15 16 17 18
29 29 30 30 29 28 27 25 24 22 21 20 18 17 16 16 16 16 16 17 17 16 16 16 16 16 16 15 15 15 16 16 16 16 16 16 17 17 17 17 17 18 18 19
29 30 29 29 28 27 26 26 25 24 23 21 20 19 17 17 17 17 17 17 17 18 18 18 17 16 16 17 16 17 17 17 17 17 17 17 18 18 18 18 19 19 20 20
30 28 29 30 28 26 26 26 25 25 24 23 21 20 19 18 19 19 18 18 18 18 18 18 18 18 19 18 19 19 19 18 18 18 18 18 19 19 20 20 20 21 21 22
32 29 27 30 28 26 26 27 26 25 25 24 23 22 21 20 20 20 19 19 19 20 20 19 19 20 20 20 21 21 21 20 19 19 20 20 20 21 21 21 21 22 23 24
32 31 29 32 28 26 27 27 26 25 25 25 24 24 22 21 21 21 21 21 21 21 21 21 21 21 22 22 22 22 22 21 21 21 21 22 22 22 22 23 23 23 24 24
34 32 33 32 29 29 28 28 27 26 26 25 24 24 23 23 23 23 22 22 22 22 23 23 23 23 24 24 24 23 23 22 23 22 22 22 22 23 23 24 25 25 25 25
36 36 35 32 30 29 28 28 28 28 27 27 26 25 24 25 25 25 24 23 24 24 24 25 25 25 25 25 25 25 24 23 23 23 23 23 24 24 25 26 25 25 25 26
37 37 35 33 32 31 30 29 29 29 28 28 27 26 26 25 25 25 26 26 26 26 26 26 27 27 27 26 26 26 24 24 23 23 23 24 25 25 25 26 26 27 27 27
37 36 36 35 34 33 32 31 30 29 29 28 28 27 27 26 26 27 27 28 28 28 28 28 28 27 27 27 26 25 24 24 23 23 23 24 24 25 26 26 26 26 26 26
38 36 35 35 34 33 33 32 31 30 30 29 28 28 28 27 27 27 27 28 29 28 28 28 28 27 27 27 27 26 25 24 24 24 25 25 25 26 26 26 26 26 26 26
38 37 36 35 34 34 33 33 32 31 30 29 28 28 28 28 27 27 27 28 28 29 28 29 28 28 28 27 27 26 25 25 26 26 25 25 26 25 26 26 26 25 26 26
38 37 36 35 35 34 34 33 33 31 30 29 29 28 28 28 28 28 29 29 29 29 28 28 29 28 27 27 27 26 26 25 26 25 25 25 25 26 25 25 25 25 25 25
37 37 36 36 35 35 34 33 32 31 30 30 29 29 28 28 28 29 29 29 29 29 28 28 28 27 26 26 26 25 25 25 25 24 25 26 25 25 25 25 25 26 25 25
34 35 35 35 35 35 35 34 32 31 31 31 30 30 29 29 28 29 29 28 28 28 28 28 27 26 26 26 25 25 24 24 23 24 25 25 25 25 25 25 24 25 25 25
32 33 33 33 34 34 34 35 34 33 32 32 31 30 29 29 28 29 29 29 28 27 27 27 26 25 25 25 25 24 24 24 24 24 23 23 24 23 23 23 24 24 25 25
31 31 31 31 32 32 32 32 32 31 30 30 30 29 29 28 28 28 28 28 27 27 27 26 25 24 24 24 24 24 24 24 23 22 22 23 22 22 23 23 23 24 24 25
29 30 30 30 31 31 31 31 30 30 30 30 29 29 29 28 28 28 27 27 27 26 26 25 25 24 24 23 23 23 23 23 22 22 21 21 21 22 22 22 23 24 24 24
29 30 29 29 29 29 29 29 29 29 29 30 29 28 28 27 27 27 26 26 26 25 25 25 24 24 24 23 23 23 22 22 22 21 21 21 21 22 22 22 23 24 24 24
28 29 29 28 28 28 28 28 28 29 28 28 28 28 27 26 26 26 25 25 25 25 24 23 23 22 22 22 22 22 21 21 21 21 21 20 21 21 22 22 23 23 23 23
26 26 27 27 27 27 27 27 27 27 27 27 27 27 26 25 25 24 24 24 24 24 23 22 22 22 21 21 21 21 21 20 20 19 19 20 21 21 21 22 23 23 23 23
23 24 25 25 26 26 26 26 25 25 25 24 25 25 25 24 23 23 22 22 22 21 20 19 19 20 20 20 19 19 19 18 18 19 20 20 21 21 22 22 22 22 22 23
21 21 22 22 23 23 23 23 23 23 23 24 24 23 23 22 22 21 21 21 20 19 18 18 18 18 18 18 17 17 17 17 18 19 20 20 21 22 22 22 22 22 23 23
20 20 20 21 22 22 22 22 22 22 22 21 21 21 21 21 21 20 20 19 18 17 17 17 17 17 16 16 16 16 16 17 18 19 20 21 21 21 21 21 22 22 23 23
19 19 19 20 20 20 20 20 19 20 20 21 20 19 18 17 17 17 17 17 17 17 16 16 16 15 15 15 15 15 16 17 17 18 19 20 20 20 21 21 21 22 23 24
17 18 18 18 18 18 18 18 18 17 17 17 17 17 17 16 16 16 15 15 15 15 15 14 14 14 14 15 15 15 16 17 18 19 19 20 20 20 21 21 22 23 24 25

GEFSNGP_500_meanwind_168.txt.gz
Wind_Speed
29 22 19 20 20 21 23 23 20 18 18 19 20 20 21 20 19 17 17 17 16 16 16 17 17 17 17 18 18 18 18 18 17 17 16 16 16 16 16 15 15 16 16 16
33 28 23 22 21 20 21 22 23 20 19 21 23 24 24 22 21 19 18 17 17 17 17 18 17 17 18 18 19 19 19 19 18 17 16 17 17 17 17 17 17 17 18 17
33 30 27 27 25 22 22 22 22 22 23 24 27 27 27 24 22 21 20 19 19 18 19 19 17 18 18 19 20 20 20 20 19 19 19 19 19 19 18 18 19 19 19 19
31 30 31 28 25 24 23 22 22 23 26 29 31 30 28 26 23 22 21 21 20 20 20 19 19 20 20 20 20 21 21 21 21 21 20 20 21 21 20 20 20 20 21 21
32 29 28 27 25 23 23 24 25 26 28 29 29 29 28 26 25 24 23 22 22 21 21 21 21 21 22 22 21 22 22 22 23 23 22 22 22 22 21 20 21 21 22 22
33 30 26 25 25 25 25 28 29 30 30 29 28 29 27 26 25 24 24 23 23 23 23 23 23 23 23 23 23 23 23 24 24 24 24 24 23 23 22 22 22 22 23 23
33 31 28 28 26 27 28 30 31 30 30 30 29 29 27 26 25 25 25 24 24 24 24 24 24 24 24 24 24 25 25 25 25 25 25 25 25 24 23 23 23 24 24 25
34 32 30 30 29 31 32 31 31 31 29 29 29 29 28 28 26 26 26 26 26 25 25 25 25 25 25 25 26 26 26 26 26 26 27 26 26 25 25 25 25 26 25 25
34 37 37 35 35 35 34 33 31 31 30 30 30 29 29 29 28 28 27 27 27 27 27 27 26 26 26 26 27 27 27 27 27 27 28 26 26 26 26 26 26 26 26 26
37 39 40 39 38 36 35 34 33 33 32 32 31 30 30 30 30 29 28 28 28 28 28 28 27 27 28 28 29 29 28 28 28 29 28 27 27 27 27 27 27 26 26 26
39 40 41 41 39 37 36 34 33 33 33 33 32 31 31 31 30 29 29 29 29 29 29 29 29 29 29 30 30 30 29 29 29 29 29 28 28 28 28 28 27 27 27 27
42 42 41 41 41 37 36 36 35 34 34 34 33 32 32 31 31 31 31 30 30 30 30 30 30 31 31 31 30 30 30 30 29 29 29 29 29 28 28 28 28 28 28 28
42 41 41 39 39 37 36 37 37 36 35 35 34 33 33 32 32 32 32 32 32 31 31 31 31 31 31 31 30 30 30 30 30 29 29 29 29 29 28 29 29 29 28 29
41 40 39 38 38 37 37 37 36 35 35 35 34 34 34 33 33 33 32 32 32 32 31 31 31 31 30 30 29 29 30 29 29 29 29 29 29 29 29 29 28 28 29 28
38 38 39 38 38 38 37 36 36 35 35 35 34 34 34 33 33 33 32 32 31 31 30 30 30 30 30 30 29 30 30 30 30 29 29 29 29 29 28 28 28 27 27 28
37 37 38 38 38 37 37 36 36 36 35 34 34 34 34 33 32 32 31 31 31 31 31 31 30 30 30 31 31 31 31 30 30 30 29 28 28 27 28 28 27 27 27 27
37 37 37 37 37 37 37 36 36 36 35 34 34 34 34 34 33 32 32 31 31 31 31 30 30 30 30 31 31 31 31 30 29 28 27 27 27 27 27 27 27 27 27 27
36 36 36 37 37 37 37 37 36 36 36 35 35 34 34 34 34 33 32 32 31 31 31 30 30 30 30 30 30 30 29 28 27 27 28 27 27 27 27 27 27 27 27 26
34 35 36 36 36 36 36 35 35 36 35 35 35 34 33 32 32 32 31 31 31 31 30 30 30 30 29 30 30 29 29 28 28 28 27 27 28 27 27 26 26 26 26 27
33 33 34 34 34 34 35 35 35 35 35 35 34 33 33 32 32 32 31 30 30 30 30 30 30 29 29 29 28 27 27 27 27 26 26 27 27 26 26 26 26 26 27 26
30 31 32 32 32 32 32 32 33 34 34 34 33 32 32 31 31 31 30 30 29 29 29 29 29 28 27 27 26 26 26 25 25 26 26 26 26 27 27 26 26 26 26 27
28 28 29 30 30 31 31 31 32 32 32 33 32 32 32 31 31 30 29 29 28 28 28 27 27 26 26 26 26 26 25 25 25 26 25 25 25 25 25 24 25 26 26 27
26 26 26 28 28 29 29 30 30 31 31 31 31 31 31 30 30 29 29 28 27 27 27 26 25 26 26 25 25 24 24 24 24 24 23 23 23 24 24 24 25 26 27 27
23 24 24 25 26 26 27 28 29 29 28 29 29 29 29 29 28 27 27 26 25 26 26 25 25 24 24 23 23 23 22 22 23 22 22 22 22 23 23 24 25 26 26 26
21 22 22 23 24 24 23 23 24 25 26 26 26 27 27 27 26 26 25 25 24 24 24 24 23 22 22 22 22 21 21 21 21 20 21 22 22 22 23 24 24 24 24 25
19 19 19 20 22 22 21 21 22 22 23 24 24 24 24 24 24 24 24 23 22 22 22 21 21 21 21 21 20 20 20 21 21 21 21 22 22 22 22 22 23 24 25 25
17 17 17 18 20 20 20 20 19 20 20 21 22 22 21 21 20 20 20 20 20 19 19 19 19 19 19 19 18 19 19 20 20 20 21 21 21 22 22 23 24 25 26 26